Location: Adaghas
(31.2259°N, 9.0496°W)
Time: 03:42:20
(UTC+00:00)

NOSS 2-2 (E) - Pass Details

Date: 18 September 2020
Orbit: 468 x 1739 km, 63.3° (Epoch: 22 October)

Event Time Altitude Azimuth Distance (km) Brightness Sun altitude
Rises 19:06:11 0° 210° (SSW) 2,615 7.1 -6.9°
Reaches altitude 10° 19:08:24 10° 212° (SSW) 1,664 6.1 -7.4°
Maximum altitude 19:11:57 81° 298° (WNW) 477 3.1 -8.2°
Drops below altitude 10° 19:15:30 10° 27° (NNE) 1,657 5.6 -8.9°
Sets 19:17:42 0° 29° (NNE) 2,603 6.6 -9.4°
